Location: Six Mile Lake
(44.9000°N, 79.7170°W)
Time: 16:05:56
(UTC-04:00)

JY1SAT - Pass Details

Date: 01 July 2022
Orbit: 564 x 586 km, 97.6° (Epoch: 08 August)

Event Time Altitude Azimuth Distance (km) Brightness Sun altitude
Exits shadow 00:11:51 - 238° (WSW) 2,196 ? -20.1°
Reaches altitude 10° 00:13:45 10° 262° (W) 1,915 ? -20.2°
Maximum altitude 00:14:30 10° 272° (W) 1,890 ? -20.2°
Drops below altitude 10° 00:15:15 10° 283° (WNW) 1,918 ? -20.3°
Sets 00:19:27 0° 324° (NW) 2,825 ? -20.5°
